{"data":{"norad_id":54087,"epoch":"2026-09-20T22:00:03.000096Z","epoch_age_seconds":53172,"freshness":"FRESH","line1":"1 54087U 22136AN  26263.91670139  .00006961  00000+0  29098-3 0  9995","line2":"2 54087  53.1605 175.8548 0001206  96.2550 273.6562 15.24713456  5745","mean_motion":15.24713456,"eccentricity":0.0001206,"inclination_deg":53.1605,"raan_deg":175.8548,"arg_perigee_deg":96.255,"mean_anomaly_deg":273.6562,"bstar":0.00029098,"rev_number":574,"period_min":94.443975314402,"perigee_km":490.8175091865,"apogee_km":492.47450084731,"semimajor_km":6869.7830050169,"source":"CELESTRAK","updated_at":"2026-09-21T09:00:33.082505Z"}}